This demonstration page uses our WeatherBlox Daily Observations layout. Learn more.

Left ArrowRight Arrow

Hourly Observations for May 2, 2020

Temp ( °F °C ) Dew Point ( °F °C ) Humidity (%) Winds ( mph kmh ) Pressure ( in mb ) Visibility ( mi km ) Precip ( " mm )
12:53 am 00:53 Clear 50 10 47 8.3 89 89 N N/A 30.06 1018 10 16.0934 N/A
1:53 am 01:53 Clear 51 10.6 47 8.3 86 86 N N/A 30.06 1018 10 16.0934 N/A
2:53 am 02:53 Partly Cloudy 52 11.1 48 8.9 86 86 N N/A 30.06 1018 10 16.0934 N/A
3:53 am 03:53 Clear 52 11.1 45 7.2 77 77 N N/A 30.05 1018 10 16.0934 N/A
4:53 am 04:53 Cloudy 52 11.1 48 8.9 86 86 N N/A 30.06 1018 10 16.0934 N/A
5:53 am 05:53 Cloudy 53 11.7 48 8.9 83 83 E 3 6 30.06 1018 10 16.0934 N/A
6:53 am 06:53 Cloudy 55 12.8 48 8.9 77 77 VRB 3 6 30.07 1018 10 16.0934 N/A
7:53 am 07:53 Cloudy 56 13.3 48 8.9 75 75 VRB 5 7 30.07 1018 10 16.0934 N/A
8:53 am 08:53 Mostly Cloudy 61 16.1 48 8.9 63 63 VRB 6 9 30.07 1018 10 16.0934 N/A
9:53 am 09:53 Mostly Sunny 63 17.2 48 8.9 58 58 N N/A 30.06 1018 10 16.0934 N/A
10:53 am 10:53 Sunny 70 21.1 48 8.9 46 46 VRB 6 9 30.02 1017 10 16.0934 N/A
11:53 am 11:53 Sunny 75 23.9 49 9.4 40 40 SW 10 17 29.99 1016 10 16.0934 N/A
12:53 pm 12:53 Sunny 79 26.1 53 11.7 41 41 SSW 9 15 29.96 1015 10 16.0934 N/A
1:53 pm 13:53 Sunny 80 26.7 53 11.7 39 39 SW 9 15 29.93 1014 10 16.0934 N/A
2:53 pm 14:53 Sunny 82 27.8 54 12.2 38 38 SW 12 19 29.92 1013 10 16.0934 N/A
3:53 pm 15:53 Mostly Cloudy 82 27.8 55 12.8 40 40 WSW 12 19 29.91 1013 10 16.0934 N/A
4:53 pm 16:53 Mostly Sunny 84 28.9 56 13.3 38 38 WSW 14 22 29.88 1012 10 16.0934 N/A
5:53 pm 17:53 Partly Cloudy 80 26.7 55 12.8 42 42 WSW 13 20 29.89 1012 10 16.0934 N/A
6:53 pm 18:53 Partly Cloudy 81 27.2 56 13.3 42 42 WSW 13 20 29.89 1012 10 16.0934 N/A
7:53 pm 19:53 Mostly Sunny 79 26.1 56 13.3 45 45 WSW 7 11 29.88 1012 10 16.0934 N/A
8:53 pm 20:53 Partly Cloudy 75 23.9 58 14.4 55 55 WSW 5 7 29.9 1012 10 16.0934 N/A
9:53 pm 21:53 Clear 72 22.2 58 14.4 61 61 N N/A 29.9 1013 10 16.0934 N/A
10:53 pm 22:53 Clear 71 21.7 58 14.4 63 63 WSW 3 6 29.92 1013 10 16.0934 N/A
11:53 pm 23:53 Clear 65 18.3 58 14.4 78 78 N N/A 29.91 1013 10 16.0934 N/A

Powered by AerisWeather